Location: Borz?cin
(51.1714°N, 19.6030°E)
Time: 17:22:19
(UTC+00:00)

Cosmos 2333 Rocket - Pass Details

Date: 19 May 2025
Orbit: 840 x 862 km, 70.8° (Epoch: 21 June)

Event Time Altitude Azimuth Distance (km) Brightness Sun altitude
Rises 22:04:41 0° 329° (NNW) 3,442 6.6 -18.5°
Reaches altitude 10° 22:07:10 10° 330° (NNW) 2,499 5.7 -18.5°
Maximum altitude 22:12:56 87° 60° (ENE) 860 2.2 -18.6°
Enters shadow 22:15:54 30° 149° (SSE) 1,483 3.0 -18.7°
